RH
47 57 72 92 96 89 80 62 49 36 27 26 26 27 26 26 24 22 20 19 18 18 18 17 18 18 19 20 20 20 20 20 20 20 20 20 20 21 19 18 18 17 15
52 60 65 79 95 91 79 68 56 40 29 26 26 25 27 28 25 23 21 21 20 20 19 18 19 19 21 21 22 22 22 22 22 22 22 22 22 21 20 20 19 17 16
56 60 66 70 94 94 85 71 61 44 32 28 30 31 32 31 26 24 23 22 22 22 20 19 20 21 22 23 23 23 23 23 23 24 24 24 22 21 22 22 20 19 17
55 54 68 73 91 90 87 73 67 51 39 32 33 32 30 28 26 24 24 24 24 23 22 21 21 22 23 25 25 24 24 24 24 26 26 24 22 21 22 23 21 20 18
63 57 57 63 70 76 80 71 68 58 44 38 33 34 34 32 30 26 25 25 25 25 24 23 23 24 25 26 27 26 25 25 26 27 26 24 22 22 22 22 22 21 19
68 69 63 71 77 80 68 66 64 61 47 44 37 36 35 36 33 28 25 25 26 27 26 25 25 26 27 28 29 28 27 27 29 29 27 25 23 23 23 22 20 20 20
59 78 75 74 75 84 75 65 64 63 57 51 45 37 39 39 38 31 28 27 27 28 28 27 27 28 29 30 31 30 28 30 31 30 27 25 25 25 24 22 21 21 18
56 61 75 79 73 78 83 68 61 58 58 52 47 39 43 43 49 38 32 29 28 29 29 29 29 31 31 32 32 31 30 33 33 31 28 27 26 26 24 23 22 23 23
55 62 66 74 73 79 78 73 69 62 58 56 54 47 48 45 47 44 36 34 30 31 32 31 32 33 34 34 34 32 33 36 35 32 30 29 28 26 25 24 23 24 25
55 59 66 78 75 70 76 81 79 76 63 59 58 51 49 52 57 62 39 37 32 33 34 33 34 36 37 36 35 34 36 38 36 33 31 30 29 27 26 24 23 22 23
56 55 62 74 79 74 75 82 82 84 70 65 62 57 52 52 68 60 50 39 35 36 37 37 37 38 38 38 36 37 40 39 36 33 32 31 29 28 26 25 23 22 22
44 50 50 64 79 88 80 79 81 81 74 68 68 59 54 54 62 53 57 47 38 41 41 40 40 39 40 39 38 42 43 40 36 34 33 31 30 28 26 24 23 22 22
45 51 55 61 76 86 86 88 86 78 72 68 66 62 61 69 73 66 56 47 46 51 44 44 43 42 42 41 43 45 44 41 37 35 33 32 30 27 26 24 24 22 23
48 50 51 62 72 86 90 87 87 82 69 64 66 68 71 80 77 71 67 64 56 49 49 48 45 44 44 44 47 48 45 41 37 35 34 32 30 27 26 25 23 24 26
60 55 53 61 74 87 97 94 92 81 76 76 77 77 77 80 71 59 54 56 55 58 54 47 46 46 46 49 50 49 45 40 37 35 33 31 29 27 27 26 27 30 33
73 67 63 70 79 95 94 97 95 81 81 82 83 86 82 77 70 62 60 60 62 55 52 50 50 49 51 53 52 48 44 40 38 35 32 30 28 27 26 28 30 35 37
83 81 77 73 79 90 92 95 92 87 90 92 93 90 87 84 76 64 63 60 58 56 55 54 52 55 56 55 51 46 42 40 36 34 32 29 27 28 30 31 34 34 36
85 87 87 83 78 86 92 96 97 94 97 98 97 97 95 85 78 71 61 59 58 58 57 56 58 60 59 54 49 44 41 38 36 33 31 29 29 32 33 35 34 35 34
82 84 93 89 85 87 96 97 96 97 98 98 98 96 92 86 81 66 60 58 60 62 59 62 63 62 56 51 46 42 40 37 34 32 31 33 34 34 36 36 36 33 34
78 83 93 97 86 88 98 97 98 99 98 98 96 94 93 90 77 71 72 66 63 63 66 66 64 58 53 48 45 43 39 35 33 32 35 35 34 35 36 36 34 33 31
82 84 95 98 95 93 95 97 98 98 98 96 95 93 87 80 72 68 64 66 67 71 71 66 59 53 52 49 45 41 39 40 37 35 33 31 31 35 34 34 31 31 36
88 88 92 95 97 94 95 96 97 96 94 93 90 87 81 79 78 76 74 74 74 72 65 60 58 54 50 46 43 39 41 39 37 34 31 30 30 27 27 27 31 39 41
90 90 92 94 96 96 98 97 96 95 94 92 90 88 84 81 77 75 77 76 70 66 62 58 55 51 48 44 40 38 38 37 35 33 32 28 25 25 25 28 31 35 37
89 92 92 96 96 98 98 98 98 98 96 90 86 82 79 80 80 77 74 69 66 63 60 56 53 47 43 40 39 39 37 34 33 30 25 22 22 24 28 31 33 37 40
90 95 95 95 97 97 98 95 92 90 87 85 84 83 80 79 75 72 70 68 64 61 56 50 46 42 40 40 40 37 34 32 29 25 21 22 24 26 29 33 36 38 42
92 95 98 98 98 98 98 97 95 94 90 83 82 81 74 73 74 71 69 65 60 54 48 44 42 40 39 39 33 28 25 24 21 22 24 26 28 30 33 34 38 40 43